GFSGBSN_sfc_temp_000.txt.gz
Temp
61 61 61 61 60 60 60 60 60 60 60 60 60 60 60 60 60 60 61 61 60 60 60 61 62 63 60 63 71 89 82 81 86 88 86 85 80 78 75 78 86 84 85 87 87 83 81
61 60 61 61 60 60 60 60 60 60 60 60 60 59 59 59 60 60 60 60 59 60 60 61 63 63 59 62 87 91 87 85 88 87 85 85 85 85 81 81 80 88 86 85 84 80 80
60 61 61 60 60 60 60 59 60 60 59 59 59 59 59 59 60 60 60 59 59 60 60 61 63 65 63 72 89 88 84 81 86 88 83 88 90 82 82 81 88 89 80 83 82 81 80
61 61 60 60 60 60 59 59 59 59 59 59 59 59 59 59 59 59 58 58 58 60 61 61 63 60 63 83 83 85 84 84 88 84 88 91 88 83 81 85 85 80 78 68 78 81 81
61 60 60 60 60 59 59 59 59 59 59 58 59 59 59 59 58 58 57 57 59 63 62 63 56 58 65 86 82 87 88 86 83 84 87 98 86 81 81 74 67 70 66 69 73 80 78
61 60 60 60 60 59 59 59 59 59 58 58 58 58 58 58 57 56 56 57 60 60 62 67 72 62 73 82 87 90 88 91 84 82 85 84 77 71 68 66 58 64 65 73 71 77 75
60 60 60 60 59 59 59 59 59 58 58 58 58 58 57 57 57 56 54 53 65 63 64 68 72 75 82 87 93 88 91 88 85 78 70 76 68 64 70 72 74 73 71 71 76 80 72
60 60 60 59 59 59 59 58 58 58 58 58 58 57 57 57 56 55 53 55 68 68 63 77 78 79 86 86 81 87 90 80 76 69 72 69 64 74 79 78 76 73 71 70 75 81 73
60 59 59 59 59 58 58 58 58 58 58 58 57 57 56 56 55 53 57 67 75 69 60 72 80 80 82 84 80 82 85 80 74 70 71 64 72 82 80 76 73 69 69 71 73 78 75
59 59 58 58 58 58 58 58 58 57 57 57 57 57 56 54 57 55 63 72 72 72 54 64 69 78 81 84 76 91 90 83 76 72 72 69 80 79 77 75 74 63 77 81 76 75 60
59 58 58 58 58 58 58 57 57 57 57 57 57 56 55 54 47 51 70 68 72 69 43 74 75 88 82 76 77 82 92 82 74 74 71 69 75 75 74 77 78 74 79 77 76 72 64
59 58 58 58 58 58 57 57 57 57 56 56 56 56 55 52 49 53 62 62 65 55 45 69 79 74 75 76 79 83 85 83 83 75 72 74 82 78 79 84 82 85 77 69 65 60 52
59 58 58 58 58 57 57 56 56 56 56 56 55 54 53 57 49 60 59 63 52 45 68 69 67 72 73 71 76 76 77 73 71 60 61 69 77 81 84 73 78 74 62 53 52 50 51
58 58 58 58 57 57 56 56 56 56 56 55 53 52 51 55 53 55 55 56 43 60 62 71 71 73 67 71 72 76 71 69 72 66 60 61 61 76 81 76 72 68 65 53 48 49 54
58 58 58 57 57 56 56 56 56 56 55 54 52 47 52 54 58 55 56 45 50 57 68 69 69 64 64 70 70 72 68 71 76 70 65 56 60 78 81 84 78 70 61 67 57 50 53
58 58 58 57 57 56 56 56 56 55 55 53 48 44 50 64 62 57 51 48 55 68 71 71 57 63 60 64 66 67 67 74 76 77 72 65 58 72 82 80 78 77 74 60 54 49 46
58 58 57 57 57 56 56 56 56 55 54 53 43 47 61 66 64 54 45 49 62 71 73 67 64 63 66 65 70 67 71 77 81 80 73 72 61 70 70 68 70 68 63 61 60 54 50
58 57 57 57 56 56 57 56 55 54 52 50 41 43 66 68 53 50 47 56 62 68 72 70 72 70 67 70 69 70 71 76 85 84 71 70 61 63 68 76 79 73 68 62 56 53 52
57 57 57 57 57 57 57 56 55 53 53 49 38 41 62 63 47 48 55 63 67 67 67 68 70 74 75 70 64 72 72 83 83 83 77 75 59 58 60 64 68 71 68 64 58 55 53
57 57 57 57 57 57 57 56 54 54 53 50 40 39 52 55 53 50 50 55 60 72 70 72 72 76 72 69 71 68 70 81 82 85 81 77 60 62 61 60 67 65 70 68 63 54 53
57 57 57 57 57 57 57 56 55 54 54 49 42 43 48 44 48 49 47 55 59 61 69 68 67 69 66 60 66 67 71 72 78 79 80 74 60 60 65 75 73 76 74 69 64 64 62
56 57 57 57 57 57 57 56 55 54 53 45 42 44 47 44 47 49 50 51 58 63 65 63 62 68 66 60 67 63 65 60 63 72 71 64 61 64 69 72 76 73 76 75 74 71 66
56 56 56 57 57 57 57 56 56 54 52 43 46 50 44 43 44 45 47 53 58 62 65 66 64 65 63 69 73 70 69 68 69 64 65 63 60 57 57 67 70 65 68 72 72 73 73
56 56 56 57 57 57 57 57 56 55 53 49 48 48 40 40 45 49 51 58 59 61 58 65 64 60 72 73 72 71 69 69 70 65 61 61 58 55 56 58 52 67 75 78 70 70 69
56 56 56 56 56 57 57 57 57 56 55 45 46 47 41 37 47 50 53 55 56 60 59 64 68 67 68 64 60 59 61 65 67 67 62 62 59 51 51 51 58 66 69 70 69 67 70
55 56 56 56 56 56 57 57 57 56 55 49 47 51 45 39 41 51 49 53 48 51 54 62 67 65 67 58 56 50 53 59 60 63 60 66 60 57 50 52 50 56 68 73 71 56 71
55 55 55 56 56 56 56 57 57 57 56 51 47 53 44 40 46 46 45 46 51 52 49 53 56 59 64 52 50 50 54 63 53 52 50 55 55 50 47 47 53 65 68 72 55 56 67
55 55 55 55 55 56 56 56 57 57 56 50 50 53 50 44 48 52 54 47 49 51 47 52 54 56 57 51 49 51 51 56 57 55 54 52 51 48 48 49 47 68 68 60 61 64 70
54 54 54 55 55 55 56 56 56 56 56 54 45 54 55 44 46 54 57 58 58 58 53 50 49 49 52 50 52 50 52 55 53 49 56 53 54 51 50 49 57 62 63 60 62 65 68

GFSGBSN_sfc_temp_003.txt.gz
Temp
61 61 61 61 60 60 60 60 60 60 60 60 60 60 60 60 60 60 61 60 60 60 60 61 61 62 58 61 70 83 82 80 81 83 83 82 79 77 73 76 79 77 79 83 83 80 81
61 61 61 61 60 60 60 60 60 60 60 60 59 59 59 59 60 60 60 59 59 59 60 61 62 63 57 60 83 85 83 79 81 82 81 83 82 82 77 77 74 81 81 82 79 78 77
61 61 61 60 60 60 59 59 59 59 59 59 59 59 59 59 59 60 59 59 59 59 60 61 61 63 61 71 84 82 77 76 78 83 80 84 84 78 77 77 84 84 75 78 77 75 75
61 60 60 60 60 59 59 59 59 59 59 59 59 59 59 59 59 59 58 57 58 60 62 61 62 59 62 80 80 81 81 81 82 80 83 85 87 80 79 82 80 75 71 67 75 77 78
61 60 60 60 59 59 59 59 59 58 58 58 58 59 59 58 58 58 57 57 59 63 62 62 55 56 64 82 79 83 84 82 81 80 82 95 82 77 76 70 64 69 65 63 70 78 75
60 60 60 60 59 59 58 58 58 58 58 58 58 58 58 57 57 56 56 57 59 60 61 65 68 60 72 78 84 85 82 86 80 80 80 80 73 68 64 63 56 66 62 66 67 76 73
60 60 60 59 59 59 58 58 58 58 58 58 58 57 57 57 56 55 53 52 64 61 59 64 67 71 78 83 87 83 85 82 80 75 68 72 66 61 67 70 71 72 66 68 73 75 69
60 59 59 59 59 59 58 58 58 58 58 58 57 57 57 56 55 55 51 59 63 62 56 71 73 75 81 81 77 84 87 77 73 66 69 65 62 71 75 73 73 71 67 67 70 74 70
59 59 58 58 58 58 58 58 57 57 57 57 57 57 56 55 55 52 54 61 68 62 54 67 74 73 75 79 75 77 82 76 70 66 66 61 68 77 76 72 71 65 64 66 68 72 70
59 58 58 58 58 58 58 57 57 57 57 57 57 57 56 55 54 49 56 63 62 64 51 60 66 74 77 79 72 86 84 79 71 68 67 66 75 76 72 71 71 55 72 74 71 68 58
59 58 58 58 58 57 57 57 57 57 56 56 56 56 55 54 47 48 64 59 61 64 41 69 70 82 73 75 75 79 86 78 71 70 68 65 71 70 69 72 75 70 74 72 71 68 59
58 58 58 58 58 57 57 56 56 56 56 56 56 55 55 51 49 51 57 56 60 53 43 64 74 70 67 70 75 77 79 80 79 71 67 71 77 75 74 78 78 77 71 65 59 57 51
58 58 58 58 57 57 56 56 56 56 55 55 54 53 52 55 49 53 55 60 50 44 64 64 63 67 65 64 73 71 71 70 66 57 55 65 71 73 77 70 72 70 60 50 48 48 48
58 58 58 57 57 57 56 56 56 56 55 54 53 52 51 53 52 54 55 53 41 57 57 65 68 68 62 67 68 69 66 66 68 62 59 55 58 70 75 72 66 64 62 51 45 44 52
58 58 58 57 57 56 56 56 56 55 55 53 52 45 46 51 54 51 55 43 48 54 64 64 64 58 59 65 66 66 64 69 72 67 59 52 57 72 76 78 75 65 57 65 53 45 48
58 58 58 57 57 56 56 56 56 55 54 53 47 42 46 58 58 53 49 46 52 63 68 65 54 58 53 58 61 61 59 69 73 71 70 63 54 67 77 76 74 73 69 56 51 46 43
58 57 57 57 57 56 56 56 55 55 53 53 41 43 57 56 56 51 44 47 58 67 70 62 57 58 59 59 61 57 62 71 75 76 73 63 59 62 68 65 66 63 59 55 56 51 48
57 57 57 57 56 56 57 56 55 53 52 53 39 41 59 59 48 44 43 51 60 63 67 64 64 62 60 62 61 60 62 69 78 79 66 66 59 59 62 69 72 69 66 64 60 50 47
57 57 57 57 57 57 57 56 55 53 53 48 41 36 53 58 43 44 50 57 61 61 62 61 62 65 69 65 58 63 67 77 79 77 72 65 54 50 55 59 62 64 63 58 55 52 49
57 57 57 57 57 57 57 56 54 53 53 49 41 36 47 50 47 45 46 50 54 67 64 66 64 68 66 61 64 62 67 76 79 78 78 73 53 64 59 59 63 62 65 63 61 53 51
57 57 57 57 57 57 57 56 55 54 53 49 42 38 43 41 46 45 44 50 54 54 63 65 58 65 63 55 60 63 68 70 72 72 71 72 60 57 70 70 67 68 67 64 62 63 62
56 56 56 57 57 57 57 56 55 54 53 46 39 39 43 42 43 46 44 47 51 55 56 57 58 65 63 57 62 61 64 63 61 67 64 63 59 60 59 67 70 68 71 69 71 63 62
56 56 56 57 57 57 57 57 56 54 50 40 42 44 41 43 43 42 44 49 53 56 59 62 62 59 60 65 68 68 69 67 63 57 59 56 63 53 61 62 66 58 66 69 68 67 68
56 56 56 57 57 57 57 57 56 55 52 47 49 45 42 40 44 46 49 51 53 55 52 60 63 57 65 68 69 68 65 63 61 59 56 58 56 52 62 57 52 62 68 72 67 69 64
55 55 56 56 57 56 57 57 57 56 55 44 49 44 43 40 44 45 49 50 52 52 53 59 65 64 64 60 59 59 59 60 61 59 59 56 54 49 50 51 60 62 66 66 70 64 66
55 55 55 56 56 56 57 57 57 57 55 46 42 47 44 40 40 48 45 49 45 44 47 56 63 65 57 54 55 50 52 58 58 60 59 57 55 56 45 50 51 59 67 68 67 59 69
55 55 55 55 55 55 57 57 57 57 56 47 44 50 45 41 45 43 41 43 49 48 42 51 55 55 56 48 46 45 48 61 55 50 49 49 51 50 48 46 53 61 64 68 57 55 65
54 54 55 55 55 55 55 56 56 57 57 48 45 49 46 43 43 49 52 46 46 46 42 51 49 52 49 46 48 48 46 53 55 57 51 49 52 48 48 48 47 66 64 61 61 61 62
54 54 54 54 55 55 55 55 56 56 56 53 45 50 54 44 43 50 53 57 55 53 48 50 48 49 48 46 46 47 48 49 50 49 58 51 54 49 50 48 57 58 60 61 61 65 62

GFSGBSN_sfc_temp_006.txt.gz
Temp
61 61 61 61 60 60 60 60 60 60 60 60 60 59 59 60 60 60 60 60 60 60 60 61 61 62 56 59 68 82 82 79 78 79 80 79 76 73 71 73 76 73 74 78 79 77 77
61 61 61 61 60 60 59 59 60 60 59 59 59 59 59 59 59 60 60 59 59 59 60 61 62 62 54 59 81 81 80 76 77 79 78 81 79 79 75 75 73 77 77 76 75 74 74
61 61 60 60 60 59 59 59 59 59 59 59 59 59 59 59 59 59 59 59 58 59 60 62 62 62 57 70 82 78 74 74 77 80 77 81 81 77 76 72 78 79 71 75 73 73 72
60 60 60 60 60 59 59 59 59 59 59 58 59 59 59 59 59 59 58 57 58 60 62 62 62 57 60 79 77 78 77 76 78 77 81 82 81 76 75 77 76 70 69 63 72 74 74
60 60 60 60 60 59 58 58 58 58 58 58 58 58 58 58 58 57 56 56 59 62 62 63 56 55 62 81 77 79 80 78 77 76 80 92 80 72 73 68 63 65 60 61 66 74 73
60 60 60 60 59 59 58 58 58 58 58 58 58 57 57 57 57 56 55 56 58 59 61 64 67 58 70 75 78 81 79 83 77 76 77 75 69 64 62 61 54 60 62 60 63 71 71
60 60 59 59 59 59 58 58 58 58 58 57 57 57 57 57 56 55 53 51 60 58 57 63 64 67 75 79 82 79 81 79 77 71 64 68 63 59 64 68 70 68 65 68 68 72 66
60 59 59 59 58 58 58 58 57 57 57 57 57 57 57 56 55 55 49 57 59 58 55 66 69 71 77 76 73 80 83 73 70 64 63 62 60 67 72 71 70 69 64 64 67 71 68
59 59 58 58 58 58 58 57 57 57 57 57 57 56 56 55 54 52 49 55 62 58 52 63 67 68 70 74 71 75 79 73 67 64 62 58 64 73 72 67 67 62 64 63 68 68 66
59 58 58 58 58 58 57 57 57 57 56 56 56 56 55 54 53 47 53 57 58 58 48 57 63 72 71 72 66 82 82 77 69 65 65 63 72 72 68 68 67 58 69 71 67 64 55
58 58 58 58 58 57 57 56 56 56 56 56 56 55 55 54 46 46 59 52 55 58 40 66 67 78 70 68 69 73 81 74 67 67 64 62 66 68 65 69 72 68 71 69 66 60 57
58 58 58 58 58 57 57 56 56 56 56 56 55 55 54 50 46 49 54 51 56 51 41 61 69 66 64 65 70 72 76 77 75 69 63 68 72 72 72 73 76 74 68 61 56 54 47
58 58 58 57 57 57 56 56 56 56 55 55 54 53 52 54 47 50 52 57 47 41 61 60 59 62 62 63 66 67 68 65 61 54 52 61 67 69 74 67 68 66 58 48 46 45 46
58 58 58 57 57 57 56 56 56 55 55 54 53 51 49 52 48 51 52 51 38 54 55 61 63 62 58 62 63 67 63 60 62 60 53 53 54 67 72 68 64 61 60 49 44 43 50
58 58 57 57 57 57 56 56 56 55 55 54 52 45 43 48 52 48 51 40 45 51 61 60 61 54 54 62 63 62 60 61 66 64 57 51 54 67 72 73 73 60 55 61 50 43 47
57 58 57 57 57 56 56 56 56 55 54 53 46 43 43 53 54 50 46 43 49 59 62 61 51 55 50 54 58 57 55 65 66 69 65 60 50 64 72 70 69 68 66 56 48 43 40
58 57 57 57 57 57 56 56 56 55 54 53 40 42 55 52 51 48 41 44 55 62 63 59 55 53 53 54 57 54 58 66 70 70 66 60 55 58 64 65 65 60 56 53 53 49 45
57 57 57 57 57 57 57 56 55 54 52 50 41 41 55 54 46 40 41 48 56 59 62 61 58 58 57 59 55 56 58 65 72 70 62 63 59 55 59 64 69 70 62 59 57 47 46
57 57 57 57 57 57 57 56 55 53 52 47 37 38 49 52 39 41 46 53 57 57 57 57 57 60 61 57 52 57 61 71 73 68 63 62 52 53 53 57 59 60 59 55 53 50 46
57 57 57 57 57 57 57 56 55 53 53 48 41 33 42 46 42 40 42 47 51 63 61 62 60 60 56 54 57 56 59 70 73 72 71 71 53 58 56 60 61 58 62 59 58 49 50
57 57 56 57 57 57 57 56 55 54 53 48 43 35 39 36 41 40 39 46 50 51 59 59 54 57 56 50 54 55 62 66 70 67 65 60 57 58 68 64 64 64 63 60 58 58 58
56 56 56 56 57 57 57 57 56 54 52 46 41 39 40 37 40 40 40 42 48 52 52 54 53 60 58 54 57 56 60 59 60 61 60 57 55 54 63 67 65 65 65 64 63 61 62
56 56 56 57 57 57 57 57 56 55 50 39 40 42 42 41 38 38 40 43 48 51 55 59 58 54 54 58 61 63 63 65 59 59 53 54 53 49 55 58 58 53 67 65 64 63 65
55 56 56 56 56 56 57 57 56 55 51 46 48 43 40 37 41 43 46 46 47 51 48 55 57 51 59 61 63 57 56 63 59 54 55 53 51 49 57 50 43 63 66 73 70 65 66
56 56 56 56 56 56 57 56 56 56 54 46 47 41 40 37 44 44 45 46 48 49 49 54 59 61 57 56 52 52 52 58 63 62 57 54 50 49 47 46 53 59 62 65 67 63 64
55 55 55 55 55 55 56 56 56 57 55 47 41 44 40 36 39 47 42 45 41 43 46 52 60 59 53 50 49 45 47 50 52 58 59 58 54 49 44 46 47 54 61 65 63 57 64
55 55 55 55 55 56 56 56 56 56 55 48 44 48 43 38 45 45 41 41 47 45 43 47 50 48 51 44 44 44 46 54 49 51 48 50 51 49 46 45 50 57 61 64 58 55 60
54 54 54 54 55 55 55 56 56 56 56 49 44 48 44 40 44 48 49 45 45 45 41 47 46 46 45 43 43 43 44 50 50 55 52 52 48 46 47 47 45 60 61 59 61 60 61
54 54 54 54 55 55 55 55 55 55 55 53 43 45 50 42 43 49 50 53 52 52 46 48 44 43 46 42 43 43 45 46 46 48 58 51 53 47 49 48 54 56 55 59 62 66 65

GFSGBSN_sfc_temp_009.txt.gz
Temp
61 61 61 61 60 60 60 60 60 60 60 60 60 60 60 60 60 60 61 60 60 60 60 61 62 62 64 73 79 90 82 81 84 87 89 88 85 85 82 84 86 83 86 87 89 86 87
61 61 61 60 60 60 60 60 60 60 59 59 59 59 59 59 60 60 60 60 59 59 60 61 62 62 68 71 91 87 85 82 83 86 87 89 89 90 88 86 85 87 86 85 87 84 84
61 60 60 60 60 59 59 59 59 59 59 59 59 59 59 59 59 60 59 58 58 59 60 62 63 63 68 79 90 87 86 87 85 87 85 91 93 90 89 84 89 86 80 82 82 84 80
60 60 60 60 60 59 59 59 59 59 58 58 58 58 58 59 59 58 58 57 58 60 62 63 63 65 72 85 86 85 88 87 87 90 92 94 93 90 87 89 85 82 82 76 80 83 81
60 60 60 60 60 59 58 58 58 58 58 58 58 58 58 58 58 57 56 56 59 62 63 64 63 65 74 85 84 89 90 88 86 88 89 94 91 87 86 83 79 78 75 75 75 84 80
60 60 60 60 59 58 58 58 58 58 58 58 58 57 57 57 57 56 55 56 59 62 64 66 69 66 79 82 87 90 89 90 86 85 85 85 84 82 80 80 71 74 74 76 76 79 80
60 60 60 59 59 58 58 58 58 58 58 57 57 57 57 56 56 55 56 65 70 69 67 75 77 75 80 87 89 87 89 88 87 83 76 80 77 73 79 82 84 83 79 78 78 81 79
60 59 59 59 58 58 58 58 57 57 57 57 57 57 56 56 55 54 58 68 66 67 64 74 73 76 82 85 78 85 91 82 81 75 77 74 72 80 84 84 80 80 78 78 78 81 80
59 59 58 58 58 58 58 57 57 57 57 57 57 56 56 55 54 58 57 65 68 69 64 71 73 74 77 79 75 80 87 83 78 74 75 73 77 80 78 79 77 78 77 77 78 78 77
59 58 58 58 58 58 57 57 57 57 56 56 56 56 55 54 58 55 65 66 66 66 62 68 72 78 77 78 72 85 89 84 77 75 74 75 81 78 77 77 81 76 81 81 78 75 69
58 58 58 58 58 57 57 57 57 56 56 56 56 56 54 54 53 56 67 64 67 67 51 73 75 85 79 76 79 77 89 84 75 75 75 73 74 74 75 78 80 79 82 80 79 77 72
58 58 58 58 58 57 57 57 56 56 56 56 55 55 54 54 53 58 62 62 67 61 49 67 76 75 72 76 78 79 80 86 85 78 75 78 81 82 81 83 82 80 78 75 74 75 64
58 58 58 58 57 57 57 56 56 56 55 55 54 53 53 56 57 61 63 68 59 52 68 66 70 73 74 71 73 76 75 73 71 65 66 73 76 81 83 79 82 81 76 64 62 61 62
58 58 58 57 57 57 57 56 56 56 55 54 53 51 53 55 58 61 62 64 49 60 65 70 70 71 69 71 72 75 73 71 76 75 70 64 62 75 83 81 76 75 78 68 56 59 65
58 58 58 57 57 57 57 56 56 55 55 53 52 54 52 57 57 58 61 53 57 60 68 67 70 67 68 70 70 72 72 73 76 77 67 64 65 77 81 83 83 74 70 83 73 65 67
58 58 58 57 57 57 56 56 56 55 55 53 50 48 52 60 59 58 58 53 61 66 69 70 63 67 63 65 67 69 69 75 75 78 82 72 64 78 80 84 80 79 82 70 70 59 56
58 58 57 57 57 57 57 56 56 55 54 53 48 49 58 60 58 57 53 56 62 69 69 68 66 65 65 64 67 66 68 74 77 77 80 78 72 71 75 75 75 74 72 71 76 71 64
57 57 56 57 57 57 57 57 56 54 52 52 46 48 59 61 54 55 53 56 57 67 72 69 69 68 66 67 66 66 66 72 78 79 71 77 73 65 71 79 81 82 77 76 69 62 68
57 57 57 57 57 57 57 56 55 53 52 50 43 44 59 58 49 52 55 56 61 65 67 67 67 70 71 66 60 66 69 77 78 77 75 73 68 61 65 74 77 73 77 79 78 76 67
57 57 57 57 57 57 57 56 55 54 53 52 44 41 52 55 52 50 48 53 55 65 65 68 68 70 66 64 67 64 66 75 77 78 70 74 71 66 63 67 75 70 73 75 75 69 69
57 57 57 56 57 57 57 56 55 54 53 53 46 43 44 44 49 48 49 51 52 54 64 65 64 66 64 60 63 63 67 70 75 75 74 74 64 68 72 76 76 75 74 75 70 74 70
56 56 56 56 56 56 56 56 55 55 52 49 42 42 44 42 45 45 47 50 51 53 55 59 59 66 66 60 63 62 68 69 68 72 73 71 66 66 65 73 75 72 76 76 75 77 74
56 56 56 56 56 56 56 56 55 54 52 46 49 50 43 43 44 44 47 49 51 52 57 59 59 57 57 62 66 68 71 72 71 67 66 67 65 64 61 71 70 64 73 75 76 79 77
56 56 56 56 56 56 56 56 55 55 53 49 50 46 38 39 43 45 47 49 48 51 49 55 58 54 63 67 70 72 68 69 70 70 70 63 60 60 62 64 53 72 82 82 78 79 80
55 55 56 56 56 56 56 56 55 56 55 48 50 44 41 36 44 42 46 48 49 51 50 53 59 64 66 63 61 59 64 65 66 69 67 70 62 53 56 60 67 71 74 75 75 75 82
55 55 55 55 55 55 56 56 56 55 55 50 48 48 43 35 40 46 43 45 43 46 50 53 61 64 62 60 59 53 54 62 60 61 66 65 62 60 57 53 54 64 68 71 71 69 74
55 56 55 55 55 55 56 56 56 56 55 50 50 49 44 37 46 48 43 44 50 49 47 51 51 55 59 55 57 56 57 64 59 59 59 55 54 56 56 54 64 63 66 70 64 71 72
55 55 55 55 54 55 55 56 56 56 55 50 49 50 44 40 47 49 50 45 48 48 42 49 49 51 50 49 53 56 55 61 61 64 60 58 52 47 53 53 55 65 66 66 68 71 73
54 54 54 54 54 55 55 55 55 54 55 54 45 53 49 42 46 53 52 53 51 52 48 50 48 47 49 48 51 50 53 60 55 56 66 54 57 50 53 54 62 65 62 68 74 72 73

GFSGBSN_sfc_temp_015.txt.gz
Temp
62 62 61 61 61 61 60 61 60 60 60 60 60 60 60 60 60 61 61 61 60 60 60 61 62 63 73 86 91 98 81 83 94 97 97 99 96 97 92 97 99 96 98 100 101 101 101
62 61 61 61 61 60 60 60 60 60 60 60 59 59 59 59 60 60 60 59 59 59 60 61 62 62 78 80 107 104 103 98 101 98 99 101 99 102 97 97 97 100 99 99 101 101 100
61 61 61 61 61 60 60 59 59 59 59 59 59 59 59 59 60 60 59 59 58 59 60 62 63 71 84 89 107 107 105 104 105 102 98 103 104 100 100 95 103 101 93 97 98 99 97
61 61 61 61 60 60 59 59 59 59 59 59 59 59 59 59 59 59 58 57 58 60 62 63 64 78 82 106 109 106 106 103 106 107 104 107 106 102 100 103 100 95 95 88 97 98 97
61 60 60 60 60 59 59 59 59 59 58 58 58 58 58 58 58 58 57 57 59 63 65 65 75 83 85 91 97 104 106 99 103 104 104 106 103 96 97 91 89 92 84 87 89 98 96
61 61 60 60 60 59 59 59 59 58 58 58 58 58 58 57 57 56 56 56 66 64 70 81 86 81 90 93 101 103 107 104 99 99 95 94 95 90 91 89 78 83 85 90 87 94 95
61 61 60 60 59 59 59 59 58 58 58 58 58 57 57 57 56 56 62 88 80 76 82 86 90 90 95 102 104 99 104 100 99 94 86 91 85 81 87 91 92 92 90 87 93 97 92
60 60 60 59 59 59 59 58 58 58 58 58 57 57 57 56 56 55 65 84 82 83 76 91 93 94 99 103 92 97 104 92 90 84 89 87 81 91 94 94 91 91 89 89 94 94 94
60 60 59 59 59 59 58 58 58 57 57 57 57 57 56 55 56 67 84 85 90 91 77 86 94 93 96 99 90 93 99 94 89 85 87 84 88 94 92 90 88 90 88 89 89 92 95
60 59 59 59 59 58 58 58 57 57 57 57 57 57 56 54 64 80 83 88 92 90 71 83 87 92 96 97 88 99 102 95 90 85 88 88 95 91 89 87 91 84 94 93 92 82 79
59 59 59 59 59 58 58 57 57 57 57 57 57 56 55 54 66 75 85 91 91 86 60 88 89 102 97 90 93 92 101 96 86 87 89 84 88 88 85 88 93 87 96 93 92 88 82
59 59 59 59 59 58 57 57 57 57 57 56 56 56 55 69 74 80 86 87 85 68 60 82 89 85 85 89 91 93 92 97 96 88 90 89 97 93 92 94 94 96 92 92 92 89 75
59 59 59 59 58 58 57 57 57 56 56 55 55 54 56 68 73 88 86 81 67 61 83 80 83 87 86 85 87 88 84 84 81 74 76 84 87 94 95 88 93 91 86 74 73 73 73
59 59 59 58 58 57 57 57 57 56 56 55 53 53 65 76 82 82 77 70 57 73 77 88 88 87 82 88 87 86 83 81 86 85 82 76 73 87 92 89 85 86 86 76 64 70 75
59 59 58 58 57 57 57 57 56 56 55 54 53 74 77 83 82 79 71 59 64 73 84 83 85 80 81 86 87 86 83 82 86 88 77 78 77 91 92 93 91 86 81 92 82 84 78
58 58 58 58 57 57 57 57 56 56 55 54 60 67 76 85 81 73 64 58 71 81 86 85 76 82 77 81 81 82 82 88 86 90 93 85 76 88 91 93 92 88 94 81 84 68 67
58 58 58 58 57 57 57 57 56 56 55 54 61 66 78 83 79 66 57 64 70 79 82 79 77 78 81 81 84 81 82 88 91 90 91 88 83 81 88 84 82 84 84 87 86 82 72
58 57 57 57 57 57 57 57 56 55 53 56 65 59 79 81 63 66 62 67 66 76 83 80 80 80 79 83 81 82 81 86 94 93 85 89 84 75 81 91 93 90 85 86 79 72 80
57 57 57 57 57 57 57 57 55 54 54 61 59 64 80 78 55 61 67 68 73 73 75 76 76 79 82 79 74 81 83 91 90 89 86 88 79 71 75 84 89 83 86 88 88 86 76
57 57 57 57 57 57 57 56 55 54 55 57 56 55 69 70 69 63 61 63 64 74 73 75 74 79 76 74 80 76 80 88 90 88 73 83 83 75 72 75 84 79 82 86 86 79 78
57 57 57 57 57 57 57 56 55 54 55 56 55 56 63 54 60 57 55 57 54 53 66 72 70 72 73 68 72 74 80 83 87 82 84 85 73 79 82 84 85 84 83 84 81 82 78
57 57 57 57 57 57 57 57 55 55 54 51 49 53 59 56 58 55 53 55 55 58 58 56 59 69 72 68 72 71 78 79 78 85 82 86 73 78 76 83 83 80 84 85 84 84 84
57 57 57 57 57 57 57 56 56 54 53 47 58 57 53 50 55 54 54 52 54 60 59 60 56 53 59 67 70 73 79 86 84 80 79 78 77 72 68 79 79 72 81 83 85 87 86
56 56 56 57 57 56 56 56 56 55 54 50 49 48 46 47 50 49 51 52 50 53 52 59 58 53 61 69 74 77 79 81 83 83 85 76 74 75 70 73 59 79 90 88 85 87 90
56 56 56 56 57 57 57 56 56 56 54 52 50 44 41 44 50 52 53 50 52 57 57 57 58 61 64 64 61 60 66 65 69 75 79 83 76 70 66 67 73 77 79 80 77 79 91
56 55 56 56 56 57 57 56 56 56 55 54 52 49 43 37 46 52 48 49 44 49 54 59 64 65 61 58 55 49 53 61 61 67 79 80 78 73 70 63 61 75 80 85 84 72 90
55 55 55 55 55 56 57 57 57 57 55 55 51 51 44 36 45 52 49 45 50 49 48 48 58 56 61 52 52 52 55 67 59 60 64 69 70 66 68 66 73 77 81 84 68 72 82
55 55 55 55 55 56 56 57 57 57 56 56 53 57 46 40 44 53 57 52 54 53 48 45 58 55 55 47 50 57 58 64 64 69 69 67 67 68 70 64 61 79 81 74 74 80 84
55 55 55 55 55 56 56 57 56 56 56 55 47 53 50 42 47 59 61 63 60 62 58 59 56 51 59 49 50 50 50 59 64 59 78 69 75 72 70 68 73 77 77 79 81 81 83

GFSGBSN_sfc_temp_021.txt.gz
Temp
62 61 62 61 61 61 60 60 61 60 60 60 60 60 60 60 60 60 61 61 60 60 60 61 62 62 62 65 73 94 82 82 87 87 86 86 83 82 78 84 87 84 87 91 93 92 87
62 62 62 61 61 60 60 60 60 60 60 60 60 59 59 59 60 60 60 59 59 60 60 61 62 62 59 62 91 96 88 86 91 88 86 88 86 88 84 85 84 89 90 91 91 90 88
61 61 61 61 61 60 60 60 60 60 59 59 59 59 59 59 59 59 59 59 59 59 61 62 63 64 65 71 94 94 91 87 90 91 85 91 92 86 86 83 91 90 83 89 89 87 86
61 61 61 61 60 60 59 59 59 59 59 59 59 59 59 59 59 59 58 58 59 60 61 63 65 64 60 89 90 89 92 92 95 92 93 93 94 87 83 88 87 82 78 70 85 90 89
61 61 61 61 60 60 59 59 59 59 59 58 58 58 58 58 58 58 57 57 60 63 63 65 60 60 66 91 85 91 93 90 92 92 93 101 90 82 83 75 69 72 66 71 79 90 88
61 61 61 61 60 60 59 59 59 59 58 58 58 58 58 58 58 57 56 58 63 64 64 71 75 63 75 81 92 94 96 96 90 89 88 86 79 73 74 68 60 64 67 74 75 84 81
61 61 61 60 60 59 59 59 59 59 58 58 58 58 57 57 57 56 55 57 67 61 68 68 70 75 84 92 98 93 97 92 89 83 73 78 69 67 71 76 77 77 75 74 82 88 75
61 61 60 60 59 59 59 59 59 58 58 58 58 57 57 57 56 56 55 60 73 76 66 80 81 81 85 88 82 92 98 83 80 73 77 72 68 76 82 81 79 77 74 74 82 88 77
60 60 60 59 59 59 59 58 58 58 57 57 57 57 56 56 56 59 64 68 81 82 64 72 80 79 81 85 80 86 90 86 79 74 75 70 73 84 81 78 77 76 72 74 75 83 82
60 59 59 59 59 59 58 58 58 58 57 57 57 57 56 54 60 60 64 80 83 82 53 66 75 81 84 84 79 92 95 88 81 74 77 74 82 81 77 76 78 69 82 82 80 76 66
59 59 59 59 59 59 58 58 58 57 57 57 57 56 55 54 52 55 71 75 78 73 43 80 81 94 85 78 82 84 95 89 77 77 75 72 77 76 75 77 82 76 83 81 81 75 72
59 59 59 59 59 58 58 57 57 57 57 57 56 56 55 57 59 63 70 73 72 52 45 72 86 80 77 79 81 87 85 89 87 79 79 77 85 83 80 85 85 86 80 79 78 74 63
59 59 59 58 58 58 57 57 57 57 56 56 55 54 53 58 54 73 66 66 49 46 74 74 75 80 78 75 78 79 78 75 71 65 66 75 77 83 87 77 81 81 66 61 58 59 56
59 58 58 58 58 57 57 57 57 56 56 55 53 52 57 65 66 62 61 54 43 62 63 76 76 79 74 79 78 79 76 71 77 73 64 62 61 77 84 79 73 75 72 62 48 54 59
58 58 58 58 57 57 57 57 56 56 55 54 52 59 60 67 72 67 57 45 50 59 69 66 66 66 71 78 78 77 74 73 77 77 65 64 64 81 85 86 83 71 68 75 59 61 56
58 58 58 57 57 57 57 57 56 56 55 54 51 54 58 71 75 66 53 46 55 66 65 62 53 62 58 62 63 73 73 79 78 82 81 69 59 77 83 86 84 78 75 63 69 53 53
58 58 57 57 57 57 57 57 56 55 54 54 51 52 67 77 75 62 47 50 57 66 67 61 59 58 60 60 64 63 66 80 84 82 82 77 70 70 77 75 73 73 72 68 65 67 57
58 57 57 57 57 57 57 57 56 55 53 54 53 44 69 71 52 57 51 56 58 61 67 64 64 61 59 61 59 61 64 71 86 87 76 79 70 63 69 80 85 81 72 67 61 52 57
57 57 57 57 57 57 57 56 55 54 54 52 46 49 64 65 44 49 56 59 62 61 61 61 60 64 66 61 55 62 66 76 81 79 79 79 71 59 63 72 79 76 78 73 73 61 57
57 57 57 57 57 57 57 56 55 55 55 52 45 41 54 59 58 53 51 48 47 58 56 60 57 58 57 57 61 57 61 72 79 80 74 73 74 68 61 65 68 67 75 77 72 64 64
57 57 57 57 57 57 57 56 55 54 55 51 45 43 50 40 45 46 49 43 45 47 55 54 51 50 47 44 48 51 55 54 61 66 73 68 65 71 73 75 75 75 75 77 71 72 63
57 57 57 57 57 57 57 56 56 55 54 48 40 42 47 42 46 45 47 48 49 49 49 47 45 48 47 43 45 41 47 47 48 58 54 59 59 66 67 76 76 73 77 78 78 77 74
56 57 57 57 57 57 57 56 55 54 52 46 50 49 42 40 43 43 44 47 46 48 49 51 51 49 45 50 53 52 54 54 53 51 52 54 53 56 55 67 67 65 73 75 75 79 76
56 56 57 57 57 57 57 57 56 55 53 48 48 46 39 35 40 42 46 48 46 47 46 50 53 49 53 58 60 58 57 57 59 60 63 56 55 58 56 58 50 64 78 81 78 77 79
56 56 57 57 57 57 57 57 56 55 55 48 48 45 40 34 41 42 46 47 48 50 48 51 54 54 55 53 46 42 49 54 58 64 64 67 59 55 50 55 58 69 73 73 71 72 76
56 56 56 56 57 57 57 57 56 56 55 51 49 50 43 34 37 46 41 44 42 43 45 49 54 55 52 49 40 35 38 44 47 52 68 68 67 59 51 49 50 61 76 82 79 60 75
56 56 56 56 56 56 57 58 58 57 56 52 50 52 44 36 41 43 41 42 46 44 40 44 45 46 48 44 36 35 35 48 43 45 50 55 56 56 54 52 58 69 80 80 59 59 73
55 56 56 56 56 57 57 57 57 57 57 53 52 54 46 40 43 48 49 46 46 47 41 45 41 41 41 36 40 39 38 46 45 51 49 47 41 48 55 49 48 73 74 68 64 70 73
55 56 55 56 56 57 57 57 57 57 57 55 48 54 51 43 43 52 52 54 52 53 49 47 43 42 42 39 41 43 41 42 44 41 55 46 50 46 57 57 65 70 70 72 73 70 70

GFSGBSN_sfc_temp_024.txt.gz
Temp
62 62 62 62 61 60 60 60 60 60 60 60 60 60 60 60 60 60 60 60 60 60 60 61 62 62 58 59 67 89 83 82 83 84 82 81 77 75 71 76 80 77 81 84 88 88 84
62 62 61 61 61 60 60 60 60 60 60 60 60 59 59 59 60 60 60 60 59 59 60 61 62 62 55 58 84 88 88 84 85 83 80 80 79 80 76 78 76 82 83 85 88 87 87
61 61 61 61 61 60 60 60 60 60 59 59 59 59 59 59 59 60 59 59 59 59 60 61 62 62 58 68 86 85 84 81 82 84 79 83 85 79 77 76 84 83 76 82 84 84 83
61 61 61 61 60 60 60 60 60 59 59 59 59 59 59 59 59 59 58 58 58 60 62 62 63 60 54 79 82 82 83 82 86 83 85 86 86 80 75 81 80 74 69 65 78 83 82
61 61 60 60 60 60 59 59 59 59 59 58 59 59 58 58 58 58 57 57 59 63 64 64 56 54 58 82 75 82 83 83 83 84 85 94 82 76 75 70 64 64 60 65 72 85 82
61 61 61 60 60 59 59 59 59 59 59 58 58 58 58 58 57 57 56 57 59 62 65 68 69 57 68 78 83 85 83 87 83 82 81 80 73 67 64 61 55 59 61 64 67 76 78
61 61 61 60 60 59 59 59 59 59 58 58 58 57 57 57 57 56 54 48 61 59 60 61 62 66 76 82 89 85 87 84 82 75 67 71 64 63 65 67 70 69 66 66 72 79 73
61 60 60 60 59 59 59 59 58 58 58 58 58 57 57 57 56 56 51 55 60 65 56 72 74 74 78 80 75 82 88 76 74 68 69 65 62 68 74 73 72 71 68 67 72 78 71
60 60 59 59 59 59 59 58 58 58 58 58 57 57 56 56 55 55 53 59 69 67 54 65 74 73 74 76 71 74 80 78 72 67 67 63 67 77 75 72 70 69 67 68 68 75 72
59 59 59 59 59 58 58 58 58 57 57 57 57 57 56 54 53 52 56 65 67 66 47 58 65 72 75 77 69 84 84 82 73 69 69 66 75 74 73 71 71 58 75 76 73 66 59
59 59 59 58 58 58 58 58 57 57 57 57 57 56 55 54 45 47 62 63 66 60 41 72 72 83 75 73 75 78 87 80 71 70 68 65 71 71 70 72 75 68 76 73 74 66 60
59 59 58 58 58 58 57 57 57 57 57 56 56 55 55 51 47 54 60 59 57 49 41 64 76 71 68 69 73 80 80 81 80 73 71 72 78 76 75 78 78 80 71 69 66 66 53
59 58 58 58 58 57 57 57 57 56 56 56 55 54 53 56 45 57 57 55 45 40 65 66 60 64 66 66 71 70 75 70 67 57 62 68 72 74 80 69 74 72 59 53 51 53 53
58 58 58 58 57 57 57 57 57 56 56 55 53 52 52 57 51 53 52 48 37 55 57 64 61 64 63 66 67 71 66 67 71 63 57 59 57 70 77 72 69 64 65 55 44 45 51
58 58 58 57 57 57 57 57 56 56 55 54 52 49 50 52 60 55 46 36 41 51 58 55 57 54 57 63 60 63 67 67 72 70 60 53 60 73 79 78 76 65 59 69 53 47 49
58 58 58 57 57 57 57 56 56 56 55 54 46 42 45 59 61 52 40 38 45 57 59 58 47 53 47 53 54 55 55 69 72 77 76 66 53 68 78 76 79 70 71 57 50 49 49
58 58 57 57 57 57 57 57 56 55 54 53 42 39 52 63 59 46 36 39 51 60 60 53 50 49 51 51 53 52 55 66 72 73 77 73 62 63 67 68 67 67 65 56 60 59 54
57 57 57 57 57 57 57 57 55 54 53 49 39 33 54 61 39 40 41 46 53 56 60 57 57 55 53 53 52 53 54 61 72 69 61 69 66 59 65 72 77 75 68 62 59 50 55
57 57 57 57 57 57 57 56 55 53 53 43 36 36 52 50 32 35 42 48 51 50 50 51 50 53 51 47 44 54 55 67 58 60 57 59 57 54 54 61 67 65 71 72 55 54 58
57 57 57 57 57 57 57 56 55 54 54 44 37 31 39 43 42 39 38 42 42 52 53 52 49 50 46 43 46 44 48 55 57 58 61 57 53 58 57 61 64 60 70 71 69 63 60
57 57 57 57 57 57 57 56 55 54 54 48 38 33 37 30 35 40 42 42 41 41 50 49 44 46 42 36 40 43 47 47 54 59 54 48 41 52 60 67 72 69 68 71 67 70 64
57 57 57 57 57 57 57 57 56 54 53 45 38 37 37 39 36 35 40 41 38 39 42 42 42 45 44 37 41 40 44 41 42 49 47 46 41 48 53 66 72 69 72 73 73 73 71
57 57 57 57 57 57 57 57 56 54 51 43 46 46 41 37 33 32 34 39 40 44 44 48 48 44 43 46 49 48 50 49 47 44 44 41 41 43 42 60 68 62 70 70 70 72 72
56 57 57 57 57 57 57 57 56 55 52 45 45 44 36 34 38 37 39 42 42 43 41 47 48 41 46 52 52 50 50 49 50 49 52 46 45 43 43 49 50 67 78 79 70 72 73
56 57 57 57 57 57 57 57 57 56 55 47 47 43 39 33 39 39 40 40 41 43 41 45 48 47 47 44 38 34 37 41 49 52 52 55 50 45 41 43 55 64 68 71 66 68 73
56 56 56 57 57 57 57 57 58 57 55 48 46 46 43 36 34 43 37 39 34 34 37 43 50 47 45 38 37 29 30 36 42 53 60 60 59 51 49 45 45 59 72 76 73 57 69
56 56 56 56 57 57 57 58 58 57 55 46 44 46 42 36 41 41 35 34 38 35 32 38 41 40 43 35 35 29 30 42 37 44 47 47 48 46 48 48 52 64 71 74 60 58 68
55 56 56 56 56 57 57 57 57 57 57 48 44 47 44 40 42 48 46 40 41 37 35 37 39 37 34 34 35 33 32 37 37 46 46 44 42 43 48 46 46 64 66 64 64 63 69
55 55 55 56 56 56 57 57 57 57 56 54 43 47 47 42 39 49 48 49 47 47 40 37 39 40 41 35 35 37 36 38 36 37 50 42 47 45 47 47 56 60 59 64 67 64 63

GFSGBSN_sfc_temp_030.txt.gz
Temp
62 62 62 61 61 61 61 61 61 61 60 60 60 60 60 60 60 60 60 60 60 60 60 60 61 61 54 53 63 78 79 79 79 80 76 74 70 68 63 66 70 66 74 78 81 77 77
61 61 61 61 61 61 60 60 60 60 60 60 60 60 60 59 60 60 60 60 59 59 60 60 61 61 50 53 77 78 78 77 77 76 74 74 72 73 67 69 67 72 73 76 76 75 75
61 61 61 61 61 60 60 60 60 60 60 60 59 59 59 59 59 60 59 59 59 59 60 61 62 59 52 63 79 76 75 73 76 78 72 75 77 75 71 67 75 74 69 72 73 73 74
61 61 61 60 60 60 59 60 60 59 59 59 59 59 59 59 59 59 58 57 58 60 61 62 63 56 54 71 71 72 74 72 78 75 74 76 77 70 67 72 71 66 63 59 70 73 75
61 60 60 60 60 59 59 59 59 59 58 58 58 58 58 58 58 58 57 57 59 64 63 63 55 50 56 75 69 72 76 73 72 71 74 87 75 66 66 62 57 57 54 59 66 75 72
61 60 60 60 60 59 59 58 58 58 58 58 58 58 58 58 57 56 56 57 58 62 63 64 63 52 62 69 73 75 72 78 73 71 72 71 64 59 56 56 51 53 54 57 62 69 69
60 60 60 60 59 59 58 58 58 58 58 58 58 57 57 57 56 56 53 52 53 52 53 55 56 60 68 74 79 74 75 76 73 67 58 63 57 54 58 60 62 61 60 60 65 71 68
60 60 59 59 58 58 58 58 58 57 57 57 57 57 57 56 56 55 51 53 53 52 44 59 59 62 70 70 68 74 79 69 67 59 62 56 57 63 65 64 64 63 59 59 65 71 65
59 59 58 58 58 58 58 57 57 57 57 57 57 57 56 55 55 50 47 52 56 50 42 55 60 62 64 67 64 67 74 69 64 60 62 60 60 68 67 62 61 56 59 60 60 66 64
59 58 58 58 58 58 57 57 57 57 57 56 57 56 56 54 51 45 51 53 53 53 41 53 58 65 66 65 60 75 78 73 65 64 60 58 67 68 62 62 62 50 64 67 66 59 54
59 58 58 58 58 57 57 57 57 57 56 56 56 56 55 54 44 43 54 53 54 49 37 65 59 72 65 63 64 67 76 69 63 62 62 59 61 63 62 64 65 61 69 65 65 58 53
59 58 58 58 58 57 57 56 56 56 56 56 55 55 54 48 43 46 51 50 48 44 36 58 64 60 59 61 64 67 69 71 72 65 61 63 67 69 65 69 68 69 64 58 54 52 47
58 58 58 58 57 57 56 56 56 56 56 55 54 53 51 52 45 49 48 47 41 35 56 53 52 55 54 56 60 61 62 63 60 52 54 60 65 65 69 62 63 63 54 43 42 44 47
58 58 58 57 57 57 56 56 56 56 55 54 53 52 49 52 50 48 44 43 31 48 46 54 54 54 51 53 54 56 58 60 62 58 55 53 49 64 67 64 59 56 54 42 38 39 47
58 58 58 57 57 57 57 56 56 56 55 54 52 43 43 47 54 47 42 31 35 41 52 50 51 46 47 51 51 52 50 59 63 60 54 50 53 66 70 68 70 55 55 58 46 40 43
58 58 57 57 57 57 56 56 56 55 55 53 43 40 40 51 51 44 36 33 37 50 52 50 40 46 41 45 47 47 48 51 53 59 56 54 48 61 69 70 68 63 62 51 43 40 37
58 57 57 57 57 57 57 57 56 55 54 52 38 34 48 52 47 39 28 31 42 51 53 46 43 43 43 43 45 45 47 51 54 54 56 49 51 52 62 60 63 56 55 49 54 46 43
57 57 57 57 57 57 57 56 56 54 52 45 35 30 49 49 34 32 31 39 45 45 49 47 48 45 43 45 43 45 45 47 56 54 45 46 42 49 53 61 69 70 62 53 50 46 44
57 57 57 57 57 57 57 56 55 53 52 41 33 33 45 45 27 28 36 41 46 43 42 44 43 45 45 41 38 44 47 54 55 52 46 48 40 40 47 57 58 56 62 58 62 49 52
57 57 58 57 57 57 57 56 54 54 53 42 34 30 34 40 34 30 30 33 38 48 43 44 43 45 41 39 41 39 43 52 54 54 58 50 38 39 40 43 50 49 58 60 61 56 57
57 57 58 58 58 58 57 56 55 54 53 43 35 32 39 28 31 37 30 34 36 34 43 42 40 40 38 31 36 36 43 44 50 52 48 43 37 39 43 49 52 53 54 57 56 61 56
57 57 57 57 58 58 57 57 56 54 52 40 33 37 39 36 39 37 36 30 34 38 37 38 36 38 40 32 34 32 37 36 38 44 41 40 37 38 40 51 52 50 55 59 60 60 58
57 57 57 57 58 58 57 57 56 54 50 43 45 45 39 37 33 34 32 34 36 38 41 43 39 36 38 41 42 42 42 42 42 37 37 36 36 35 34 45 47 45 55 58 59 62 62
57 57 57 57 57 57 57 57 57 55 51 43 42 43 37 32 34 37 39 39 37 38 36 41 42 37 45 47 45 41 37 38 41 42 42 35 34 35 33 38 34 50 59 63 64 66 65
57 57 57 57 57 57 57 57 58 56 54 44 43 43 38 32 38 38 38 37 36 37 35 37 41 45 46 42 34 31 31 31 36 40 42 43 37 33 33 33 45 52 55 54 49 53 66
56 56 56 57 57 57 57 57 58 57 55 44 43 44 42 36 35 41 35 35 32 31 34 37 43 42 40 33 30 25 25 30 32 37 42 43 45 39 33 33 34 47 56 60 58 46 60
56 56 56 56 57 57 57 58 58 57 55 46 44 44 42 37 42 41 35 36 38 37 34 34 36 37 37 33 32 28 26 36 29 31 30 31 35 33 35 35 42 52 55 59 49 52 56
55 56 56 56 56 56 57 57 58 57 57 50 48 44 43 39 41 45 46 40 41 40 33 36 33 33 33 30 30 29 32 32 30 35 34 31 31 30 33 33 34 56 56 52 53 56 58
55 55 55 56 56 56 57 57 57 56 56 54 45 46 47 42 41 47 47 48 47 46 41 40 39 34 38 33 34 33 32 34 31 28 39 33 39 36 40 40 49 54 54 56 57 58 59

GFSGBSN_sfc_temp_033.txt.gz
Temp
62 62 62 62 61 61 60 61 61 60 60 60 60 60 60 60 60 60 60 60 60 60 60 60 61 61 60 63 71 83 79 80 83 85 82 79 75 76 71 73 75 72 77 81 83 85 85
62 61 61 61 61 60 60 60 60 60 60 60 60 59 59 59 60 60 60 60 59 59 60 60 61 61 58 62 85 84 83 82 83 83 83 82 79 80 77 75 75 79 78 80 84 85 85
61 61 61 61 60 60 60 60 60 59 59 59 59 59 59 59 59 60 59 59 58 59 60 60 62 61 58 72 83 84 83 82 84 85 81 85 85 81 80 75 82 81 76 82 83 84 83
61 61 60 60 60 59 59 59 59 59 58 58 59 59 59 59 59 59 58 57 59 61 61 61 62 61 63 78 82 79 82 79 84 87 86 87 86 84 79 82 79 77 76 73 82 83 85
60 60 60 60 59 59 58 58 58 58 58 58 58 58 58 58 58 58 56 57 61 64 64 63 59 57 66 76 74 83 84 79 79 83 84 88 85 79 78 74 71 73 70 71 75 85 83
60 60 60 60 59 59 58 58 58 58 58 58 58 58 58 58 57 56 56 57 61 63 64 65 64 58 69 74 78 78 85 82 77 78 76 78 77 72 73 71 62 65 67 72 72 81 81
60 60 59 59 59 58 58 58 58 58 58 58 57 57 57 56 56 55 57 64 63 61 61 63 64 65 71 81 83 78 83 81 80 76 68 74 68 64 70 72 73 72 72 72 75 81 78
59 59 59 59 58 58 58 58 57 57 57 57 57 57 56 56 55 55 60 61 56 57 50 64 61 64 71 74 72 76 84 75 73 67 73 67 64 73 75 72 71 71 70 71 75 80 78
59 59 58 58 58 58 58 57 57 57 57 57 57 56 56 55 54 56 55 57 62 60 50 60 64 66 70 73 68 74 80 79 73 69 68 67 71 76 71 69 67 69 69 71 71 77 79
59 58 58 58 58 57 57 57 57 57 56 56 56 56 55 54 57 54 58 59 60 58 51 61 63 68 70 74 67 81 83 80 74 69 70 71 77 72 69 68 71 65 74 73 71 70 66
58 58 58 58 58 57 57 57 56 56 56 56 56 55 54 53 52 53 60 60 60 56 47 66 65 78 73 72 73 72 83 79 72 72 71 68 70 68 66 70 73 69 76 73 73 71 71
59 58 58 58 58 57 57 56 56 56 56 56 55 55 54 53 53 57 58 57 57 51 44 62 68 66 65 69 71 72 74 82 81 73 75 75 77 76 73 75 75 78 72 73 71 71 59
58 58 58 58 57 57 56 56 56 56 56 55 54 53 53 56 55 61 57 57 50 44 62 56 58 62 62 63 67 68 67 68 67 62 62 70 70 76 79 71 75 74 70 60 57 58 58
58 58 57 57 57 56 56 56 56 56 55 54 52 51 53 57 60 58 57 54 41 51 51 59 59 60 58 60 62 63 65 64 73 73 68 61 58 71 77 74 69 69 71 62 52 57 63
58 58 57 57 57 56 57 56 56 56 55 53 52 54 56 60 60 58 55 43 44 47 49 49 55 53 54 57 57 59 63 66 71 73 65 63 64 74 76 78 77 69 65 76 66 62 61
58 58 57 57 57 57 57 56 56 56 55 53 50 47 54 60 58 57 50 40 44 50 51 53 46 51 47 52 55 56 58 56 62 65 65 68 61 73 75 79 79 73 77 62 66 53 53
58 57 57 57 57 57 57 57 56 55 54 51 49 48 59 59 59 53 41 40 44 51 52 50 48 47 50 48 52 53 51 56 58 59 63 64 65 64 73 70 69 68 67 70 71 66 59
57 57 57 57 57 57 57 57 55 54 52 50 46 45 58 58 46 45 41 42 46 49 52 49 52 50 49 50 50 51 49 53 59 60 55 58 64 62 65 77 80 76 71 71 63 58 64
57 57 57 57 57 57 57 56 55 53 52 49 41 40 56 58 36 38 42 42 46 46 46 45 45 49 51 49 46 50 51 57 59 59 54 59 56 57 61 69 72 70 74 73 74 72 61
57 57 58 57 57 57 57 56 54 53 53 52 44 40 48 48 46 38 36 39 40 49 46 44 44 49 47 47 50 46 49 54 57 58 58 58 55 56 58 62 61 60 67 72 72 65 64
57 57 57 57 58 58 57 56 55 54 53 52 43 40 43 37 42 41 41 39 38 39 46 47 37 38 38 40 45 45 48 51 55 55 57 57 50 53 55 57 58 58 60 63 64 69 65
57 57 57 57 57 57 57 57 56 54 52 48 42 41 42 38 42 40 41 38 38 41 40 41 35 38 37 37 42 40 44 47 46 53 52 55 50 51 51 57 59 56 61 62 63 65 66
57 57 57 57 57 57 57 57 56 54 51 47 49 49 40 38 37 36 40 40 40 42 44 45 39 40 39 40 47 50 52 52 51 47 47 49 50 49 46 54 55 52 60 63 65 68 69
56 57 57 57 57 57 57 57 57 56 52 49 47 45 38 34 35 39 40 42 41 42 37 44 46 42 48 53 54 55 51 50 50 51 52 47 46 50 47 50 41 62 68 68 67 71 74
56 57 57 57 57 57 57 57 57 56 55 49 49 44 40 34 40 41 42 42 44 44 42 42 47 50 53 49 44 41 45 44 47 50 51 51 48 46 44 47 54 58 64 64 62 66 71
56 56 56 57 57 57 57 57 58 57 55 50 49 49 44 36 37 44 40 42 38 38 40 43 51 53 49 47 40 33 37 40 41 46 51 51 49 46 46 42 41 58 68 70 65 56 66
56 56 56 56 57 57 57 58 58 58 55 50 48 50 45 37 42 45 37 37 42 38 37 41 43 46 48 41 36 31 35 43 38 40 41 41 42 39 42 42 51 63 65 66 54 61 66
55 55 56 56 56 56 57 57 57 58 57 52 47 48 46 40 42 46 47 39 41 41 34 42 41 40 40 34 34 37 36 41 37 45 44 42 38 38 42 40 38 65 67 58 64 66 67
55 55 55 55 56 56 56 57 57 57 56 55 47 47 48 42 42 52 53 54 51 51 44 41 42 41 42 36 35 35 35 39 38 32 49 39 46 44 46 48 59 63 62 70 68 64 67

GFSGBSN_sfc_temp_036.txt.gz
Temp
62 62 62 61 61 61 61 61 61 60 60 60 60 60 60 60 60 60 61 61 60 60 60 61 61 62 68 73 81 96 79 80 88 93 91 88 84 86 82 85 86 82 87 89 92 92 92
61 61 61 61 61 60 60 60 60 60 60 60 59 59 59 59 60 60 60 59 59 59 60 61 61 62 70 68 96 95 93 88 91 92 91 92 88 92 87 86 84 89 88 89 92 93 94
61 61 61 61 60 60 59 59 59 59 59 59 59 59 59 59 59 60 59 58 58 59 61 61 62 67 69 78 93 95 93 92 94 94 91 95 95 90 89 84 90 90 82 88 89 92 90
61 61 60 60 60 59 59 59 59 59 59 59 59 59 59 59 59 59 58 57 58 62 63 62 63 69 72 90 94 90 94 92 96 97 97 98 96 92 88 90 86 83 86 80 91 92 93
60 60 60 60 60 59 59 59 59 58 58 58 58 58 58 58 58 57 56 57 60 64 63 63 67 70 75 80 83 91 93 87 91 94 95 96 92 86 88 80 80 83 78 81 84 93 91
60 60 60 60 59 59 59 58 58 58 58 58 58 58 57 57 57 56 55 58 62 65 69 72 74 65 77 80 88 90 94 93 87 86 84 83 83 81 81 78 70 76 77 82 82 89 90
60 60 59 59 59 59 58 58 58 58 58 58 58 57 57 57 56 55 63 77 72 68 73 73 77 77 79 87 89 87 91 88 87 83 76 82 75 72 78 82 83 84 82 80 86 91 87
60 59 59 59 59 58 58 58 58 58 58 58 57 57 57 56 55 55 72 70 61 61 56 73 74 77 83 82 79 85 92 82 79 73 81 77 71 81 84 84 81 80 77 80 86 90 86
59 59 59 58 58 58 58 57 57 57 57 57 57 57 56 55 55 66 69 64 71 70 59 71 77 76 77 82 78 81 87 86 79 76 77 75 79 84 81 79 76 77 77 79 80 85 87
59 59 58 58 58 58 57 57 57 57 57 57 57 57 55 53 63 69 69 73 73 70 57 71 70 75 80 82 75 89 89 87 81 76 79 79 86 80 79 76 79 74 83 81 81 79 73
59 58 58 58 58 58 57 57 57 57 57 57 57 56 55 52 65 66 68 73 71 67 52 74 73 85 81 78 85 81 90 86 79 79 81 75 78 78 75 77 82 77 86 81 80 78 77
58 59 58 58 58 57 57 57 57 56 56 56 56 55 53 65 71 72 73 72 68 55 50 68 73 71 71 75 79 84 81 88 88 81 82 81 88 85 82 84 84 85 81 80 79 78 68
58 58 58 58 57 57 57 57 57 56 56 55 54 53 58 67 64 73 73 68 55 52 70 62 65 70 72 72 74 76 74 73 72 67 69 76 79 84 86 79 83 81 76 66 64 66 65
58 58 58 57 57 57 57 57 57 56 55 54 53 51 61 69 74 72 69 60 46 59 56 63 63 66 64 72 72 74 72 70 76 77 75 68 66 79 84 81 77 76 77 70 58 65 70
58 58 58 57 57 57 57 57 56 56 55 54 52 70 71 73 73 71 63 51 53 51 55 54 61 61 66 67 67 69 71 72 76 80 72 71 71 84 84 85 84 76 71 84 76 77 72
58 58 58 57 57 57 57 57 56 56 55 53 62 66 69 75 74 69 59 46 52 56 56 58 52 58 55 60 62 66 70 67 73 81 84 77 69 81 82 85 86 83 84 72 75 61 60
58 58 58 57 57 57 57 57 56 55 54 53 64 60 68 74 73 64 51 50 53 58 58 53 52 53 57 57 60 63 63 63 67 74 72 77 76 76 81 76 76 77 76 78 80 76 67
58 57 57 57 57 57 57 57 55 54 52 57 62 55 69 72 59 58 51 50 49 56 59 56 57 54 55 57 57 59 58 61 66 68 65 75 75 70 74 84 87 84 78 78 70 66 73
57 57 58 57 57 58 57 56 55 53 53 60 56 57 70 68 48 48 51 51 54 52 52 50 49 55 56 55 51 57 58 63 65 66 65 72 69 64 70 78 82 78 81 82 81 80 69
57 57 58 58 57 58 57 56 55 54 53 59 56 51 62 62 60 51 47 47 48 55 52 53 41 48 52 54 58 54 57 61 64 64 60 63 70 68 66 70 77 72 77 80 79 72 73
57 57 57 58 58 58 57 57 55 54 53 59 59 52 51 46 50 49 47 49 46 44 52 54 40 37 37 45 53 52 56 59 63 62 66 66 62 63 70 67 68 74 76 78 75 77 72
57 57 57 57 58 58 58 57 56 55 53 59 51 48 49 49 48 44 45 45 45 46 46 46 39 44 45 35 37 41 50 55 55 61 61 65 59 61 60 66 66 65 70 73 77 79 78
57 57 57 57 58 58 58 57 56 55 54 55 58 56 47 45 46 43 43 45 45 47 50 50 48 48 46 46 48 54 58 59 59 55 56 57 59 57 57 66 64 59 67 71 73 77 77
57 57 57 58 58 58 57 57 57 56 53 51 51 48 41 37 42 43 45 47 45 47 43 51 53 48 54 60 58 60 61 61 60 59 62 55 55 58 57 60 48 69 80 77 73 76 79
57 57 57 57 57 57 58 58 58 57 56 49 50 45 41 35 42 45 46 46 48 48 46 50 53 57 60 55 50 49 52 52 55 59 59 61 57 54 51 54 63 67 70 70 70 72 81
57 57 57 57 57 57 57 58 58 57 56 51 49 50 44 37 41 47 44 46 43 44 47 49 57 61 57 50 47 39 45 47 48 52 62 61 58 54 55 48 48 66 76 78 76 63 80
56 56 56 56 57 57 57 58 58 58 57 52 48 50 44 38 46 47 42 41 48 46 45 48 52 53 56 46 41 41 44 51 45 46 49 51 51 48 51 50 59 71 73 74 58 64 77
55 56 56 56 56 56 57 57 57 57 57 53 49 49 45 39 45 52 51 44 43 45 39 47 47 49 50 42 43 47 46 52 47 52 51 50 48 49 50 48 46 72 72 63 71 75 76
55 55 55 55 56 56 56 57 57 56 56 55 48 49 49 43 45 57 57 57 54 51 45 44 47 46 50 42 43 41 43 46 46 43 57 46 54 53 55 55 66 70 69 72 72 70 72

GFSGBSN_sfc_temp_042.txt.gz
Temp
62 62 62 61 61 60 60 60 60 60 60 60 60 60 60 60 60 60 61 61 60 60 60 61 61 62 64 69 78 99 81 83 91 92 89 90 88 88 83 88 91 88 79 84 81 88 83
61 61 61 61 60 60 60 60 60 60 60 60 60 59 59 60 60 60 60 60 59 60 60 61 62 63 66 66 98 102 99 90 92 90 90 93 91 94 89 89 89 92 93 93 89 97 90
61 61 61 61 60 60 60 60 60 59 59 59 59 59 59 59 60 60 60 59 59 60 61 64 63 67 71 76 102 105 101 93 95 93 89 95 98 93 92 88 95 94 86 92 88 96 95
61 61 60 60 60 59 59 59 59 59 59 59 59 59 59 59 59 59 59 58 59 61 64 64 65 69 69 97 94 97 102 98 99 98 96 99 101 95 92 95 93 88 86 78 90 94 96
60 60 60 60 60 59 59 59 59 59 59 58 59 59 59 59 58 58 57 57 60 63 64 64 66 71 74 91 90 97 100 95 96 98 97 101 98 90 91 83 80 85 75 79 84 95 93
60 60 60 60 60 59 59 59 59 58 58 58 58 58 58 58 58 57 56 58 67 63 66 74 77 70 78 84 94 96 100 99 93 93 90 90 90 83 84 80 69 75 77 81 80 90 92
60 60 60 60 59 59 59 59 58 58 58 58 58 58 58 57 57 56 62 84 76 72 77 71 76 77 86 95 100 94 97 94 94 89 79 85 79 75 79 83 84 84 82 81 87 92 88
60 60 59 59 59 59 59 58 58 58 58 58 58 57 57 57 56 56 63 75 74 75 63 75 77 78 83 90 84 91 98 86 85 77 83 80 74 83 86 85 83 82 81 82 88 93 89
59 59 59 59 59 58 58 58 58 58 58 57 57 57 57 56 56 67 82 77 85 83 64 68 77 77 80 85 80 87 92 88 82 78 79 75 80 86 84 82 80 80 79 81 84 88 87
59 59 59 59 58 58 58 58 58 58 57 57 57 57 56 54 65 78 78 84 86 84 57 68 78 83 84 86 78 93 95 88 84 78 81 79 87 83 81 80 82 75 86 86 85 83 75
59 59 59 58 58 58 58 57 57 57 57 57 57 57 55 53 65 73 79 86 86 79 45 81 81 93 91 80 87 83 97 89 79 81 81 77 80 81 78 80 85 80 89 85 85 82 81
59 59 59 59 58 58 57 57 57 57 57 57 56 56 54 71 76 80 86 85 80 57 46 68 75 73 76 82 82 88 85 91 89 83 84 82 90 87 86 87 88 90 86 85 84 81 70
59 59 58 58 58 57 57 57 57 57 56 56 55 54 56 70 71 85 84 76 57 48 69 62 62 67 67 69 77 80 79 77 74 68 71 78 81 88 91 84 87 86 79 68 66 67 65
59 59 58 58 58 57 57 57 57 57 56 55 54 53 68 78 84 84 78 64 47 59 59 66 63 64 62 71 72 77 75 73 78 78 74 70 68 81 89 85 81 81 79 69 57 63 68
59 58 58 58 58 57 57 57 57 56 56 55 54 75 79 84 85 82 68 54 56 58 63 59 61 56 58 65 63 66 74 75 78 79 70 72 71 87 89 90 88 80 74 85 75 77 71
59 58 58 58 58 57 57 57 57 56 55 55 61 68 72 84 85 77 63 52 61 65 64 62 52 57 50 54 55 56 61 79 79 83 85 78 70 84 87 91 89 85 88 73 76 61 61
59 58 58 58 58 57 57 57 57 56 55 54 67 68 79 85 82 68 56 59 61 66 65 59 55 53 53 50 49 52 57 61 71 80 85 81 76 77 85 80 79 81 79 80 80 76 66
58 58 58 58 58 57 58 57 56 55 53 60 64 60 81 82 62 65 58 61 56 63 66 62 60 57 49 49 47 45 48 56 67 72 69 81 76 69 75 89 90 86 81 81 71 67 75
58 58 58 58 58 58 58 57 56 54 54 58 59 65 81 76 53 55 60 60 62 59 58 54 55 58 57 49 44 46 46 55 61 66 63 68 70 64 69 80 86 81 83 83 83 81 70
58 58 58 58 58 58 58 57 56 55 54 58 59 52 61 61 61 55 53 53 54 63 56 51 51 59 54 48 52 42 43 54 59 65 65 67 66 66 66 72 82 76 80 83 81 74 74
58 58 58 58 58 58 58 57 56 55 55 59 60 53 54 45 51 51 53 54 52 50 54 52 53 45 47 44 45 42 47 52 56 63 69 71 62 69 74 80 82 81 79 81 78 81 74
57 57 58 58 58 58 58 57 57 56 54 59 48 43 45 46 52 50 49 46 50 54 54 52 50 45 47 46 48 45 49 47 45 59 60 68 60 67 67 76 78 75 82 81 82 82 83
57 57 57 58 58 58 58 57 57 56 56 56 52 51 42 39 47 45 47 48 50 54 55 57 52 53 52 54 58 59 60 58 53 54 57 59 60 60 58 70 72 68 77 81 82 85 84
57 57 57 58 58 58 58 57 57 57 56 59 54 46 38 36 44 45 47 49 47 49 50 56 57 54 59 66 66 64 63 61 61 61 64 57 57 59 57 63 53 73 84 84 82 86 89
57 57 57 57 57 58 58 58 58 57 56 56 54 44 39 35 43 45 47 45 49 53 52 54 59 62 61 61 52 49 51 54 58 62 62 64 59 55 55 58 66 72 79 79 77 79 90
57 57 57 57 57 57 57 58 58 57 56 55 52 48 43 37 40 48 44 48 43 44 53 55 63 68 64 54 49 42 38 50 51 56 66 64 63 56 57 53 53 69 82 88 87 70 84
57 56 56 57 57 57 57 57 58 58 57 55 51 51 45 38 42 47 42 41 50 47 47 54 55 56 62 40 44 44 46 55 51 51 52 54 54 52 54 53 63 72 78 84 66 61 76
56 56 56 56 56 57 57 57 57 57 57 54 52 52 46 40 44 50 52 47 49 48 41 51 51 46 49 41 43 44 43 49 53 54 53 53 50 50 54 52 50 72 74 63 68 73 74
56 56 56 56 56 56 56 57 57 57 57 56 49 53 51 43 46 55 58 59 57 57 50 49 48 50 52 41 43 47 46 51 51 45 62 51 55 53 57 58 69 71 71 74 77 73 73

GFSGBSN_sfc_temp_048.txt.gz
Temp
61 61 61 61 61 60 60 60 60 60 60 60 60 60 60 60 60 61 61 61 60 60 61 61 62 61 56 52 59 81 83 79 80 79 76 74 71 69 66 71 74 72 76 82 83 80 80
61 61 61 61 60 60 60 60 60 60 60 60 60 60 60 60 60 61 61 60 60 60 61 61 63 62 52 50 78 80 82 76 79 78 76 76 73 75 71 73 72 78 78 81 84 79 79
61 61 61 60 60 60 59 59 60 59 59 59 59 59 59 59 60 60 60 59 60 61 62 61 64 62 53 58 80 80 76 74 78 79 74 79 79 77 75 71 80 79 74 80 79 80 79
60 60 60 60 60 59 59 59 59 59 59 59 59 59 59 59 59 59 59 59 60 63 62 62 65 62 50 71 73 72 75 77 80 80 80 80 81 73 70 77 76 72 71 68 78 77 82
60 60 60 60 60 59 59 59 59 59 59 59 59 59 59 59 59 58 57 58 61 65 63 65 58 56 49 75 70 75 78 78 77 76 78 88 76 69 70 65 60 63 59 66 73 80 80
60 60 60 60 59 59 59 59 59 58 58 58 58 58 58 58 58 57 57 58 62 62 64 66 66 51 62 72 76 80 78 82 77 75 74 73 66 60 63 56 52 56 58 63 67 75 80
60 60 60 59 59 59 59 58 58 58 58 58 58 58 58 58 57 56 53 57 61 55 59 55 61 60 67 74 80 76 81 80 78 71 61 66 60 56 62 64 66 66 65 65 71 79 75
60 59 59 59 59 59 58 58 58 58 58 58 58 58 58 57 56 56 53 56 57 63 51 67 68 66 70 71 64 72 78 71 69 64 66 59 58 66 70 69 68 68 64 66 72 79 77
59 59 59 59 58 58 58 58 58 58 58 58 58 58 57 56 55 57 56 60 67 58 47 59 65 64 65 66 63 66 70 71 66 62 65 61 64 73 70 68 66 66 63 65 66 73 79
59 59 58 58 58 58 58 58 58 57 57 57 58 57 56 55 56 53 57 65 67 62 40 53 62 68 71 67 62 79 77 71 70 65 65 64 72 70 68 67 69 59 72 72 71 66 58
59 59 58 58 58 58 58 57 57 57 57 57 57 57 56 54 46 51 64 61 68 57 34 65 62 74 70 62 66 68 77 70 64 65 65 63 68 67 65 68 73 66 74 71 71 63 57
59 59 59 58 58 58 57 57 57 57 57 57 57 56 55 53 48 55 61 65 57 43 35 57 61 60 59 61 62 67 66 69 72 66 67 68 76 73 71 75 75 77 70 68 64 60 54
59 59 58 58 58 57 57 57 57 57 56 56 55 54 53 58 55 61 61 55 40 34 57 50 49 54 53 53 56 57 56 52 46 43 54 65 67 75 77 69 73 71 59 51 46 49 49
59 58 58 58 57 57 57 57 57 56 56 55 54 53 54 59 56 59 55 46 31 49 46 54 53 52 48 50 51 52 50 46 53 47 39 54 52 67 76 69 66 66 62 47 41 44 51
58 58 58 58 57 57 57 57 57 56 55 55 53 52 54 61 64 58 49 34 36 45 53 51 49 44 44 51 48 48 47 48 52 49 37 34 55 71 75 77 73 64 60 64 50 46 49
58 58 58 58 57 57 57 57 56 56 55 54 48 45 53 67 66 55 44 39 43 55 55 52 39 44 38 43 43 45 45 53 50 54 50 43 35 64 73 75 75 70 69 54 49 45 40
58 58 58 57 57 57 57 57 56 55 54 53 43 43 57 70 60 48 35 38 49 57 58 48 42 40 40 37 41 42 45 51 53 51 51 44 39 50 65 63 65 60 64 58 59 50 50
58 57 57 57 57 57 57 57 56 54 53 50 40 38 58 64 44 41 36 44 50 50 54 50 50 47 41 41 38 40 42 45 54 50 42 46 41 36 52 69 71 73 62 62 57 48 48
57 57 58 57 57 57 57 57 55 54 53 48 38 40 56 54 32 34 41 46 51 48 50 49 46 47 44 38 34 40 44 53 54 48 41 42 39 32 45 53 62 60 68 63 58 55 50
58 58 58 58 58 58 57 56 55 54 54 45 39 35 42 43 40 33 35 40 43 52 49 49 47 46 41 37 38 36 40 47 50 49 51 45 39 35 32 43 52 55 65 65 66 56 55
58 58 58 58 58 58 57 57 55 54 54 45 39 35 37 33 36 37 39 41 42 41 49 50 43 43 39 32 35 36 41 46 49 49 45 40 33 38 43 48 53 54 64 67 62 63 60
57 57 58 58 58 58 58 57 56 55 54 43 37 37 37 35 39 39 40 40 39 42 43 41 40 43 41 34 37 34 40 43 41 43 38 40 33 37 38 53 56 56 66 67 68 70 64
57 57 57 58 58 58 58 57 56 55 53 41 42 43 42 40 38 36 37 38 39 43 46 48 44 41 39 43 47 47 49 50 45 41 37 35 35 32 35 53 59 52 57 64 67 69 67
57 57 57 58 58 58 57 57 57 55 54 49 44 46 39 35 37 37 39 40 40 40 39 46 45 39 47 52 50 47 49 50 50 48 45 38 35 34 36 46 42 54 60 62 60 61 61
57 57 57 57 57 57 57 57 57 56 55 50 49 45 40 34 38 39 40 40 41 42 42 43 48 49 49 43 36 35 38 42 47 50 46 45 41 32 37 43 52 53 54 55 52 54 61
57 57 57 57 57 57 57 57 57 57 56 51 47 49 43 37 37 42 40 40 37 38 41 44 49 50 47 35 34 31 29 34 36 40 51 44 44 39 40 39 39 46 56 64 64 45 61
56 56 56 56 57 57 57 58 58 57 56 52 48 50 44 38 42 43 39 39 43 41 38 41 41 41 42 36 32 32 32 38 33 33 36 34 39 41 43 40 42 48 53 66 45 48 60
56 56 56 56 56 56 57 57 57 57 57 53 50 50 46 40 43 48 49 43 43 42 37 42 38 38 35 32 33 32 33 36 36 36 35 34 34 33 35 37 34 51 51 43 48 55 57
55 55 55 56 56 56 57 57 57 57 56 55 49 52 50 44 44 49 50 51 48 47 43 43 40 39 37 34 35 36 33 37 38 32 44 33 37 35 36 37 50 52 50 56 55 53 52